Time,TemperatureF,DewpointF,PressureIn,WindDirection,WindDirectionDegrees,WindSpeedMPH,WindSpeedGustMPH,Humidity,HourlyPrecipIn,Conditions,Clouds,dailyrainin,SolarRadiationWatts/m^2,SoftwareType,DateUTC
2013-02-05 00:00:00,44.2,42.9,30.02,SSW,195,0.0,0.0,95,0.00,,---,0.00,0.00,VWS V14.01,2013-02-05 08:00:00,
2013-02-05 00:05:00,44.3,43.0,30.01,SSW,195,0.0,2.0,95,0.00,,---,0.00,0.00,VWS V14.01,2013-02-05 08:05:00,
2013-02-05 00:10:00,44.4,43.1,30.01,SSW,200,3.0,6.0,95,0.00,,---,0.00,0.00,VWS V14.01,2013-02-05 08:10:00,
2013-02-05 00:15:00,44.7,43.1,30.01,SSW,201,0.0,6.0,94,0.00,,---,0.00,0.00,VWS V14.01,2013-02-05 08:15:00,
2013-02-05 00:20:00,44.8,43.2,30.01,SSE,159,3.0,5.0,94,0.00,,---,0.00,0.00,VWS V14.01,2013-02-05 08:20:00,
2013-02-05 00:25:00,44.8,43.2,30.01,South,186,5.0,6.0,94,0.00,,---,0.00,0.00,VWS V14.01,2013-02-05 08:25:00,
2013-02-05 00:30:00,45.0,43.1,30.01,South,179,6.0,7.0,93,0.00,,---,0.00,0.00,VWS V14.01,2013-02-05 08:30:00,
2013-02-05 00:35:00,45.0,43.1,30.01,SSW,206,5.0,8.0,93,0.00,,---,0.00,0.00,VWS V14.01,2013-02-05 08:35:00,
2013-02-05 00:40:00,45.0,43.1,30.01,South,184,1.0,6.0,93,0.00,,---,0.00,0.00,VWS V14.01,2013-02-05 08:40:00,
2013-02-05 00:45:00,44.8,42.9,30.01,SSW,199,3.0,9.0,93,0.00,,---,0.00,0.00,VWS V14.01,2013-02-05 08:45:00,
2013-02-05 00:50:00,44.8,42.9,30.00,SE,146,1.0,4.0,93,0.00,,---,0.00,0.00,VWS V14.01,2013-02-05 08:50:00,
2013-02-05 00:55:00,44.7,42.8,30.01,SSW,198,0.0,5.0,93,0.00,,---,0.00,0.00,VWS V14.01,2013-02-05 08:55:00,
2013-02-05 01:00:00,44.6,42.7,30.01,SSW,198,4.0,5.0,93,0.00,,---,0.00,0.00,VWS V14.01,2013-02-05 09:00:00,
2013-02-05 01:05:00,44.4,42.5,30.00,SSW,200,0.0,5.0,93,0.00,,---,0.00,0.00,VWS V14.01,2013-02-05 09:05:00,
2013-02-05 01:09:00,44.3,42.4,30.01,WSW,237,4.0,4.0,93,0.00,,---,0.00,0.00,VWS V14.01,2013-02-05 09:09:00,
2013-02-05 01:10:00,44.3,42.4,30.00,SSW,200,0.0,5.0,93,0.00,,---,0.00,0.00,VWS V14.01,2013-02-05 09:10:00,
2013-02-05 01:14:00,44.2,42.6,30.01,SSW,198,0.0,4.0,94,0.00,,---,0.00,0.00,VWS V14.01,2013-02-05 09:14:00,
2013-02-05 01:19:00,44.2,42.6,30.01,SSW,193,4.0,6.0,94,0.00,,---,0.00,0.00,VWS V14.01,2013-02-05 09:19:00,
2013-02-05 01:20:00,44.2,42.6,30.01,South,189,2.0,4.0,94,0.00,,---,0.00,0.00,VWS V14.01,2013-02-05 09:20:00,
2013-02-05 01:24:00,44.3,42.7,30.00,SSW,193,2.0,6.0,94,0.00,,---,0.00,0.00,VWS V14.01,2013-02-05 09:24:00,
2013-02-05 01:30:00,44.4,42.8,30.01,SSW,196,5.0,5.0,94,0.00,,---,0.00,0.00,VWS V14.01,2013-02-05 09:30:00,
2013-02-05 01:35:00,44.4,42.8,30.01,South,172,2.0,5.0,94,0.00,,---,0.00,0.00,VWS V14.01,2013-02-05 09:35:00,
2013-02-05 01:39:00,44.5,42.6,30.01,South,172,0.0,2.0,93,0.00,,---,0.00,0.00,VWS V14.01,2013-02-05 09:39:00,
2013-02-05 01:40:00,44.5,42.6,30.01,South,172,1.0,5.0,93,0.00,,---,0.00,0.00,VWS V14.01,2013-02-05 09:40:00,
2013-02-05 01:45:00,44.5,42.6,30.01,South,172,1.0,3.0,93,0.00,,---,0.00,0.00,VWS V14.01,2013-02-05 09:45:00,
2013-02-05 01:50:00,44.5,42.6,30.01,South,191,0.0,5.0,93,0.00,,---,0.00,0.00,VWS V14.01,2013-02-05 09:50:00,
2013-02-05 01:55:00,44.6,42.7,30.01,SSW,207,4.0,6.0,93,0.00,,---,0.00,0.00,VWS V14.01,2013-02-05 09:55:00,
2013-02-05 02:00:00,44.6,42.7,30.01,South,188,4.0,4.0,93,0.00,,---,0.00,0.00,VWS V14.01,2013-02-05 10:00:00,
2013-02-05 02:06:00,44.7,42.8,30.02,South,173,2.0,5.0,93,0.00,,---,0.00,0.00,VWS V14.01,2013-02-05 10:06:00,
2013-02-05 02:10:00,44.7,42.5,30.02,South,174,3.0,5.0,92,0.00,,---,0.00,0.00,VWS V14.01,2013-02-05 10:10:00,
2013-02-05 02:11:00,44.7,42.5,30.02,South,182,2.0,5.0,92,0.00,,---,0.00,0.00,VWS V14.01,2013-02-05 10:11:00,
2013-02-05 02:16:00,44.7,42.5,30.02,South,188,2.0,7.0,92,0.00,,---,0.00,0.00,VWS V14.01,2013-02-05 10:16:00,
2013-02-05 02:20:00,44.7,42.5,30.02,SSE,163,2.0,7.0,92,0.00,,---,0.00,0.00,VWS V14.01,2013-02-05 10:20:00,
2013-02-05 02:21:00,44.7,42.5,30.02,SSW,209,0.0,4.0,92,0.00,,---,0.00,0.00,VWS V14.01,2013-02-05 10:21:00,
2013-02-05 02:26:00,44.7,42.5,30.01,SSW,202,3.0,4.0,92,0.00,,---,0.00,0.00,VWS V14.01,2013-02-05 10:26:00,
2013-02-05 02:30:00,44.7,42.5,30.01,SSW,200,0.0,4.0,92,0.00,,---,0.00,0.00,VWS V14.01,2013-02-05 10:30:00,
2013-02-05 02:31:00,44.8,42.6,30.01,SSW,192,3.0,6.0,92,0.00,,---,0.00,0.00,VWS V14.01,2013-02-05 10:31:00,
2013-02-05 02:36:00,44.9,42.7,30.01,SW,216,4.0,7.0,92,0.00,,---,0.00,0.00,VWS V14.01,2013-02-05 10:36:00,
2013-02-05 02:40:00,44.9,42.4,30.01,South,181,6.0,8.0,91,0.00,,---,0.00,0.00,VWS V14.01,2013-02-05 10:40:00,
2013-02-05 02:41:00,45.1,42.6,30.01,SSW,192,3.0,10.0,91,0.00,,---,0.00,0.00,VWS V14.01,2013-02-05 10:41:00,
2013-02-05 02:46:00,45.3,42.5,30.01,SSW,200,1.0,10.0,90,0.00,,---,0.00,0.00,VWS V14.01,2013-02-05 10:46:00,
2013-02-05 02:50:00,45.3,42.5,30.01,South,181,3.0,10.0,90,0.00,,---,0.00,0.00,VWS V14.01,2013-02-05 10:50:00,
2013-02-05 02:51:00,45.3,42.5,30.01,SSW,194,5.0,9.0,90,0.00,,---,0.00,0.00,VWS V14.01,2013-02-05 10:51:00,
2013-02-05 02:56:00,45.3,42.3,30.01,SSW,205,3.0,12.0,89,0.00,,---,0.00,0.00,VWS V14.01,2013-02-05 10:56:00,
2013-02-05 03:00:00,45.4,42.3,30.01,South,184,5.0,12.0,89,0.00,,---,0.00,0.00,VWS V14.01,2013-02-05 11:00:00,
2013-02-05 03:01:00,45.4,42.3,30.01,SW,214,3.0,5.0,89,0.00,,---,0.00,0.00,VWS V14.01,2013-02-05 11:01:00,
2013-02-05 03:06:00,45.4,42.1,30.00,SSW,207,3.0,11.0,88,0.00,,---,0.00,0.00,VWS V14.01,2013-02-05 11:06:00,
2013-02-05 03:10:00,45.4,42.1,30.00,South,170,2.0,11.0,88,0.00,,---,0.00,0.00,VWS V14.01,2013-02-05 11:10:00,
2013-02-05 03:11:00,45.4,42.1,30.00,SSW,197,3.0,7.0,88,0.00,,---,0.00,0.00,VWS V14.01,2013-02-05 11:11:00,
2013-02-05 03:16:00,45.5,42.2,30.00,SSW,194,7.0,9.0,88,0.00,,---,0.00,0.00,VWS V14.01,2013-02-05 11:16:00,
2013-02-05 03:20:00,45.5,41.9,30.00,South,178,4.0,10.0,87,0.00,,---,0.00,0.00,VWS V14.01,2013-02-05 11:20:00,
2013-02-05 03:21:00,45.5,41.9,30.00,South,173,2.0,9.0,87,0.00,,---,0.00,0.00,VWS V14.01,2013-02-05 11:21:00,
2013-02-05 03:26:00,45.6,42.0,30.00,SSE,156,3.0,9.0,87,0.00,,---,0.00,0.00,VWS V14.01,2013-02-05 11:26:00,
2013-02-05 03:30:00,45.6,41.7,30.00,SSE,154,5.0,9.0,86,0.00,,---,0.00,0.00,VWS V14.01,2013-02-05 11:30:00,
2013-02-05 03:31:00,45.7,41.8,30.00,South,169,6.0,11.0,86,0.00,,---,0.00,0.00,VWS V14.01,2013-02-05 11:31:00,
2013-02-05 03:36:00,45.8,41.9,29.99,SSE,159,6.0,11.0,86,0.00,,---,0.00,0.00,VWS V14.01,2013-02-05 11:36:00,
2013-02-05 03:40:00,45.8,41.9,29.99,SSE,148,6.0,11.0,86,0.00,,---,0.00,0.00,VWS V14.01,2013-02-05 11:40:00,
2013-02-05 03:41:00,45.8,41.5,29.99,South,169,4.0,9.0,85,0.00,,---,0.00,0.00,VWS V14.01,2013-02-05 11:41:00,
2013-02-05 03:46:00,45.8,41.9,29.99,SSE,157,2.0,9.0,86,0.00,,---,0.00,0.00,VWS V14.01,2013-02-05 11:46:00,
2013-02-05 03:50:00,45.8,41.9,29.99,South,187,12.0,12.0,86,0.00,,---,0.00,0.00,VWS V14.01,2013-02-05 11:50:00,
2013-02-05 03:51:00,45.8,41.9,29.99,SSE,162,5.0,12.0,86,0.00,,---,0.00,0.00,VWS V14.01,2013-02-05 11:51:00,
2013-02-05 03:56:00,45.8,41.9,29.99,SSE,165,5.0,12.0,86,0.00,,---,0.00,0.00,VWS V14.01,2013-02-05 11:56:00,
2013-02-05 04:00:00,45.8,41.9,29.99,South,175,3.0,12.0,86,0.00,,---,0.00,0.00,VWS V14.01,2013-02-05 12:00:00,
2013-02-05 04:01:00,45.8,41.5,29.99,SE,138,10.0,11.0,85,0.00,,---,0.00,0.00,VWS V14.01,2013-02-05 12:01:00,
2013-02-05 04:06:00,45.8,41.5,29.98,SSE,162,3.0,11.0,85,0.00,,---,0.00,0.00,VWS V14.01,2013-02-05 12:06:00,
2013-02-05 04:10:00,45.8,41.6,29.98,SSE,159,5.0,11.0,85,0.00,,---,0.00,0.00,VWS V14.01,2013-02-05 12:10:00,
2013-02-05 04:11:00,45.7,41.5,29.98,SSE,150,4.0,9.0,85,0.00,,---,0.00,0.00,VWS V14.01,2013-02-05 12:11:00,
2013-02-05 04:16:00,45.7,41.5,29.98,South,170,5.0,9.0,85,0.00,,---,0.00,0.00,VWS V14.01,2013-02-05 12:16:00,
2013-02-05 04:20:00,45.7,41.5,29.98,South,177,4.0,9.0,85,0.00,,---,0.00,0.00,VWS V14.01,2013-02-05 12:20:00,
2013-02-05 04:21:00,45.8,41.5,29.98,SSE,158,3.0,10.0,85,0.00,,---,0.00,0.00,VWS V14.01,2013-02-05 12:21:00,
2013-02-05 04:26:00,45.9,41.3,29.98,South,170,2.0,10.0,84,0.00,,---,0.00,0.00,VWS V14.01,2013-02-05 12:26:00,
2013-02-05 04:30:00,45.9,41.3,29.98,SSW,196,4.0,10.0,84,0.00,,---,0.00,0.00,VWS V14.01,2013-02-05 12:30:00,
2013-02-05 04:31:00,45.9,41.3,29.98,SSE,151,2.0,10.0,84,0.00,,---,0.00,0.00,VWS V14.01,2013-02-05 12:31:00,
2013-02-05 04:36:00,45.9,41.3,29.98,SSE,167,4.0,10.0,84,0.00,,---,0.00,0.00,VWS V14.01,2013-02-05 12:36:00,
2013-02-05 04:40:00,46.0,41.4,29.98,SSE,163,1.0,10.0,84,0.00,,---,0.00,0.00,VWS V14.01,2013-02-05 12:40:00,
2013-02-05 04:41:00,46.0,41.4,29.98,South,184,4.0,4.0,84,0.00,,---,0.00,0.00,VWS V14.01,2013-02-05 12:41:00,
2013-02-05 04:46:00,46.0,41.4,29.98,SSE,155,3.0,6.0,84,0.00,,---,0.00,0.00,VWS V14.01,2013-02-05 12:46:00,
2013-02-05 04:50:00,46.0,41.4,29.98,SSE,151,0.0,6.0,84,0.00,,---,0.00,0.00,VWS V14.01,2013-02-05 12:50:00,
2013-02-05 04:51:00,45.9,41.7,29.98,SSE,167,2.0,4.0,85,0.00,,---,0.00,0.00,VWS V14.01,2013-02-05 12:51:00,
2013-02-05 04:56:00,45.7,41.8,29.98,SSE,167,3.0,7.0,86,0.01,,---,0.01,0.00,VWS V14.01,2013-02-05 12:56:00,
2013-02-05 05:00:00,45.6,41.7,29.98,SSE,163,3.0,7.0,86,0.01,,---,0.01,0.00,VWS V14.01,2013-02-05 13:00:00,
2013-02-05 05:01:00,45.4,41.8,29.98,South,191,5.0,5.0,87,0.01,,---,0.01,0.00,VWS V14.01,2013-02-05 13:01:00,
2013-02-05 05:06:00,45.3,42.0,29.98,South,183,3.0,5.0,88,0.01,,---,0.01,0.00,VWS V14.01,2013-02-05 13:06:00,
2013-02-05 05:10:00,45.2,42.2,29.98,SSE,166,0.0,5.0,89,0.01,,---,0.01,0.00,VWS V14.01,2013-02-05 13:10:00,
2013-02-05 05:11:00,45.1,42.1,29.98,SSE,166,0.0,5.0,89,0.01,,---,0.01,0.00,VWS V14.01,2013-02-05 13:11:00,
2013-02-05 05:16:00,44.9,42.2,29.98,SSE,166,0.0,5.0,90,0.01,,---,0.01,0.00,VWS V14.01,2013-02-05 13:16:00,
2013-02-05 05:20:00,44.9,42.2,29.99,SSE,166,0.0,5.0,90,0.01,,---,0.01,0.00,VWS V14.01,2013-02-05 13:20:00,
2013-02-05 05:21:00,44.8,42.3,29.98,SSE,166,0.0,2.0,91,0.01,,---,0.01,0.00,VWS V14.01,2013-02-05 13:21:00,
2013-02-05 05:26:00,44.7,42.2,29.98,SSE,167,1.0,4.0,91,0.02,,---,0.02,0.00,VWS V14.01,2013-02-05 13:26:00,
2013-02-05 05:30:00,44.6,42.4,29.98,SSE,167,0.0,4.0,92,0.02,,---,0.02,0.00,VWS V14.01,2013-02-05 13:30:00,
2013-02-05 05:31:00,44.5,42.3,29.98,SSE,167,0.0,1.0,92,0.03,,---,0.03,0.00,VWS V14.01,2013-02-05 13:31:00,
2013-02-05 05:36:00,44.4,42.5,29.98,SSE,164,0.0,4.0,93,0.04,,---,0.04,0.00,VWS V14.01,2013-02-05 13:36:00,
2013-02-05 05:40:00,44.4,42.5,29.98,SSE,164,0.0,4.0,93,0.04,,---,0.04,0.00,VWS V14.01,2013-02-05 13:40:00,
2013-02-05 05:41:00,44.3,42.4,29.98,SSE,164,0.0,3.0,93,0.05,,---,0.05,0.00,VWS V14.01,2013-02-05 13:41:00,
2013-02-05 05:46:00,44.1,42.5,29.98,SSE,163,2.0,5.0,94,0.05,,---,0.05,0.00,VWS V14.01,2013-02-05 13:46:00,
2013-02-05 05:50:00,44.1,42.5,29.98,SSE,163,3.0,5.0,94,0.06,,---,0.06,0.00,VWS V14.01,2013-02-05 13:50:00,
2013-02-05 05:51:00,44.0,42.7,29.98,SSE,148,2.0,6.0,95,0.06,,---,0.06,0.00,VWS V14.01,2013-02-05 13:51:00,
2013-02-05 05:56:00,43.9,42.6,29.98,SSW,192,2.0,7.0,95,0.07,,---,0.07,0.00,VWS V14.01,2013-02-05 13:56:00,
2013-02-05 06:00:00,43.9,42.6,29.97,South,171,0.0,7.0,95,0.07,,---,0.07,0.00,VWS V14.01,2013-02-05 14:00:00,
2013-02-05 06:01:00,43.8,42.5,29.98,SSE,166,3.0,5.0,95,0.06,,---,0.07,0.00,VWS V14.01,2013-02-05 14:01:00,
2013-02-05 06:06:00,43.7,42.4,29.97,SSE,161,8.0,9.0,95,0.06,,---,0.07,0.00,VWS V14.01,2013-02-05 14:06:00,
2013-02-05 06:10:00,43.7,42.4,29.98,SSE,164,2.0,9.0,95,0.06,,---,0.07,0.00,VWS V14.01,2013-02-05 14:10:00,
2013-02-05 06:11:00,43.6,42.5,29.97,SSE,161,0.0,6.0,96,0.06,,---,0.07,0.00,VWS V14.01,2013-02-05 14:11:00,
2013-02-05 06:16:00,43.6,42.5,29.97,SE,142,0.0,6.0,96,0.06,,---,0.07,0.00,VWS V14.01,2013-02-05 14:16:00,
2013-02-05 06:20:00,43.6,42.5,29.97,SSE,150,2.0,6.0,96,0.07,,---,0.08,0.00,VWS V14.01,2013-02-05 14:20:00,
2013-02-05 06:21:00,43.6,42.5,29.97,SE,142,1.0,4.0,96,0.07,,---,0.08,0.00,VWS V14.01,2013-02-05 14:21:00,
2013-02-05 06:26:00,43.5,42.4,29.97,SSE,168,1.0,5.0,96,0.07,,---,0.08,0.00,VWS V14.01,2013-02-05 14:26:00,
2013-02-05 06:30:00,43.5,42.4,29.97,ESE,116,3.0,5.0,96,0.08,,---,0.09,0.00,VWS V14.01,2013-02-05 14:30:00,
2013-02-05 06:31:00,43.5,42.4,29.97,SE,145,1.0,3.0,96,0.07,,---,0.09,0.00,VWS V14.01,2013-02-05 14:31:00,
2013-02-05 06:36:00,43.5,42.4,29.97,South,173,1.0,4.0,96,0.07,,---,0.09,0.00,VWS V14.01,2013-02-05 14:36:00,
2013-02-05 06:40:00,43.5,42.4,29.97,South,173,1.0,6.0,96,0.07,,---,0.09,0.00,VWS V14.01,2013-02-05 14:40:00,
2013-02-05 06:41:00,43.5,42.4,29.97,SE,134,2.0,5.0,96,0.05,,---,0.09,0.00,VWS V14.01,2013-02-05 14:41:00,
2013-02-05 06:46:00,43.5,42.4,29.96,SSE,167,1.0,5.0,96,0.06,,---,0.10,0.00,VWS V14.01,2013-02-05 14:46:00,
2013-02-05 06:50:00,43.5,42.4,29.97,SSE,153,0.0,5.0,96,0.06,,---,0.10,0.00,VWS V14.01,2013-02-05 14:50:00,
2013-02-05 06:51:00,43.5,42.4,29.97,SSE,153,3.0,4.0,96,0.04,,---,0.10,0.00,VWS V14.01,2013-02-05 14:51:00,
2013-02-05 06:56:00,43.5,42.4,29.97,SSE,155,1.0,4.0,96,0.04,,---,0.10,0.00,VWS V14.01,2013-02-05 14:56:00,
2013-02-05 07:00:00,43.5,42.4,29.97,SSE,161,3.0,4.0,96,0.04,,---,0.10,0.00,VWS V14.01,2013-02-05 15:00:00,
2013-02-05 07:01:00,43.4,42.3,29.97,SSE,162,3.0,4.0,96,0.03,,---,0.10,0.00,VWS V14.01,2013-02-05 15:01:00,
2013-02-05 07:06:00,43.4,42.3,29.97,South,177,0.0,4.0,96,0.03,,---,0.10,0.00,VWS V14.01,2013-02-05 15:06:00,
2013-02-05 07:10:00,43.4,42.6,29.97,South,177,0.0,4.0,97,0.03,,---,0.10,0.00,VWS V14.01,2013-02-05 15:10:00,
2013-02-05 07:15:00,43.4,42.6,29.97,South,176,0.0,4.0,97,0.03,,---,0.10,0.00,VWS V14.01,2013-02-05 15:15:00,
2013-02-05 07:20:00,43.4,42.6,29.97,South,172,0.0,3.0,97,0.02,,---,0.10,0.00,VWS V14.01,2013-02-05 15:20:00,
2013-02-05 07:25:00,43.4,42.6,29.97,South,172,0.0,3.0,97,0.02,,---,0.10,0.00,VWS V14.01,2013-02-05 15:25:00,
2013-02-05 07:30:00,43.4,42.6,29.97,South,172,0.0,3.0,97,0.01,,---,0.10,0.00,VWS V14.01,2013-02-05 15:30:00,
2013-02-05 07:35:00,43.4,42.6,29.97,South,172,3.0,3.0,97,0.01,,---,0.10,0.00,VWS V14.01,2013-02-05 15:35:00,
2013-02-05 07:40:00,43.4,42.6,29.97,South,172,2.0,2.0,97,0.01,,---,0.10,0.00,VWS V14.01,2013-02-05 15:40:00,
2013-02-05 07:45:00,43.4,42.6,29.97,South,172,0.0,2.0,97,0.01,,---,0.10,5.00,VWS V14.01,2013-02-05 15:45:00,
2013-02-05 07:50:00,43.4,42.6,29.97,South,172,1.0,4.0,97,0.00,,---,0.10,7.00,VWS V14.01,2013-02-05 15:50:00,
2013-02-05 07:55:00,43.5,42.7,29.97,South,172,0.0,4.0,97,0.00,,---,0.10,12.00,VWS V14.01,2013-02-05 15:55:00,
2013-02-05 08:00:00,43.5,42.7,29.97,South,172,4.0,4.0,97,0.00,,---,0.10,16.00,VWS V14.01,2013-02-05 16:00:00,
2013-02-05 08:05:00,43.6,42.8,29.97,South,172,0.0,4.0,97,0.00,,---,0.10,23.00,VWS V14.01,2013-02-05 16:05:00,
2013-02-05 08:10:00,43.6,42.8,29.98,South,181,3.0,3.0,97,0.00,,---,0.10,39.00,VWS V14.01,2013-02-05 16:10:00,
2013-02-05 08:15:00,43.7,42.9,29.98,South,184,3.0,3.0,97,0.00,,---,0.10,30.00,VWS V14.01,2013-02-05 16:15:00,
2013-02-05 08:20:00,43.8,43.0,29.98,South,184,1.0,3.0,97,0.00,,---,0.10,28.00,VWS V14.01,2013-02-05 16:20:00,
2013-02-05 08:25:00,43.9,43.1,29.98,South,180,0.0,3.0,97,0.00,,---,0.10,16.00,VWS V14.01,2013-02-05 16:25:00,
2013-02-05 08:30:00,43.9,43.1,29.98,SSE,163,3.0,3.0,97,0.00,,---,0.10,21.00,VWS V14.01,2013-02-05 16:30:00,
2013-02-05 08:35:00,44.0,43.2,29.98,SE,146,1.0,4.0,97,0.00,,---,0.10,23.00,VWS V14.01,2013-02-05 16:35:00,
2013-02-05 08:40:00,44.0,43.2,29.98,SE,142,5.0,5.0,97,0.00,,---,0.10,28.00,VWS V14.01,2013-02-05 16:40:00,
2013-02-05 08:45:00,44.0,43.2,29.98,South,184,0.0,9.0,97,0.00,,---,0.10,70.00,VWS V14.01,2013-02-05 16:45:00,
2013-02-05 08:50:00,44.2,43.4,29.98,South,184,3.0,4.0,97,0.00,,---,0.10,239.00,VWS V14.01,2013-02-05 16:50:00,
2013-02-05 08:55:00,44.6,43.8,29.98,South,184,0.0,4.0,97,0.00,,---,0.10,105.00,VWS V14.01,2013-02-05 16:55:00,
2013-02-05 09:00:00,44.9,44.1,29.99,South,182,2.0,3.0,97,0.00,,---,0.10,93.00,VWS V14.01,2013-02-05 17:00:00,
2013-02-05 09:05:00,45.0,44.2,29.98,South,176,3.0,5.0,97,0.00,,---,0.10,151.00,VWS V14.01,2013-02-05 17:05:00,
2013-02-05 09:10:00,45.4,44.6,29.99,South,186,2.0,5.0,97,0.00,,---,0.10,299.00,VWS V14.01,2013-02-05 17:10:00,
2013-02-05 09:15:00,46.0,45.2,29.99,SSE,159,4.0,6.0,97,0.00,,---,0.10,104.00,VWS V14.01,2013-02-05 17:15:00,
2013-02-05 09:20:00,45.9,44.8,29.99,SSW,209,2.0,7.0,96,0.00,,---,0.10,69.00,VWS V14.01,2013-02-05 17:20:00,
2013-02-05 09:25:00,46.0,44.9,29.99,SSW,199,4.0,7.0,96,0.00,,---,0.10,40.00,VWS V14.01,2013-02-05 17:25:00,
2013-02-05 09:30:00,45.9,44.5,29.99,SSW,201,3.0,9.0,95,0.00,,---,0.10,104.00,VWS V14.01,2013-02-05 17:30:00,
2013-02-05 09:35:00,45.9,44.5,29.99,SSW,200,6.0,10.0,95,0.00,,---,0.10,102.00,VWS V14.01,2013-02-05 17:35:00,
2013-02-05 09:40:00,45.9,44.3,29.99,SSW,193,4.0,10.0,94,0.00,,---,0.10,139.00,VWS V14.01,2013-02-05 17:40:00,
2013-02-05 09:45:00,46.2,44.8,29.99,South,184,1.0,10.0,95,0.00,,---,0.10,288.00,VWS V14.01,2013-02-05 17:45:00,
2013-02-05 09:50:00,46.6,45.2,30.00,South,175,10.0,10.0,95,0.00,,---,0.10,223.00,VWS V14.01,2013-02-05 17:50:00,
2013-02-05 09:55:00,46.7,45.1,29.99,SSE,158,6.0,12.0,94,0.00,,---,0.10,204.00,VWS V14.01,2013-02-05 17:55:00,
2013-02-05 10:00:00,46.8,45.2,30.00,SSW,201,8.0,11.0,94,0.00,,---,0.10,121.00,VWS V14.01,2013-02-05 18:00:00,
2013-02-05 10:05:00,46.7,45.1,30.00,SSW,199,5.0,11.0,94,0.00,,---,0.10,104.00,VWS V14.01,2013-02-05 18:05:00,
2013-02-05 10:10:00,46.7,45.1,30.00,South,186,3.0,11.0,94,0.00,,---,0.10,69.00,VWS V14.01,2013-02-05 18:10:00,
2013-02-05 10:15:00,46.6,45.0,30.00,SSE,160,4.0,11.0,94,0.00,,---,0.10,79.00,VWS V14.01,2013-02-05 18:15:00,
2013-02-05 10:20:00,46.6,45.0,30.00,South,178,6.0,11.0,94,0.01,,---,0.11,137.00,VWS V14.01,2013-02-05 18:20:00,
2013-02-05 10:25:00,46.8,45.2,30.00,South,169,3.0,17.0,94,0.01,,---,0.11,114.00,VWS V14.01,2013-02-05 18:25:00,
2013-02-05 10:30:00,47.0,45.4,29.99,SSW,192,3.0,14.0,94,0.01,,---,0.11,176.00,VWS V14.01,2013-02-05 18:30:00,
2013-02-05 10:35:00,47.4,45.8,29.99,South,188,14.0,17.0,94,0.01,,---,0.11,229.00,VWS V14.01,2013-02-05 18:35:00,
2013-02-05 10:40:00,47.7,45.8,29.99,South,181,9.0,13.0,93,0.01,,---,0.11,200.00,VWS V14.01,2013-02-05 18:40:00,
2013-02-05 10:45:00,47.9,46.0,29.99,South,187,6.0,13.0,93,0.01,,---,0.11,265.00,VWS V14.01,2013-02-05 18:45:00,
2013-02-05 10:50:00,48.3,46.4,30.00,SSE,153,4.0,10.0,93,0.01,,---,0.11,167.00,VWS V14.01,2013-02-05 18:50:00,
2013-02-05 10:55:00,48.5,46.3,30.00,SSE,161,2.0,14.0,92,0.01,,---,0.11,165.00,VWS V14.01,2013-02-05 18:55:00,
2013-02-05 11:00:00,48.7,46.2,30.00,South,189,5.0,16.0,91,0.01,,---,0.11,214.00,VWS V14.01,2013-02-05 19:00:00,
2013-02-05 11:05:00,49.1,46.3,30.00,South,180,7.0,16.0,90,0.01,,---,0.11,225.00,VWS V14.01,2013-02-05 19:05:00,
2013-02-05 11:10:00,49.4,46.3,30.00,South,175,7.0,11.0,89,0.01,,---,0.11,258.00,VWS V14.01,2013-02-05 19:10:00,
2013-02-05 11:15:00,49.5,45.8,30.00,South,182,5.0,16.0,87,0.01,,---,0.11,299.00,VWS V14.01,2013-02-05 19:15:00,
2013-02-05 11:20:00,49.9,46.5,30.00,SSW,211,4.0,11.0,88,0.01,,---,0.11,265.00,VWS V14.01,2013-02-05 19:20:00,
2013-02-05 11:25:00,50.4,46.1,30.00,SSE,161,2.0,17.0,85,0.01,,---,0.11,450.00,VWS V14.01,2013-02-05 19:25:00,
2013-02-05 11:30:00,51.0,46.7,30.00,SSW,203,10.0,13.0,85,0.00,,---,0.11,708.00,VWS V14.01,2013-02-05 19:30:00,
2013-02-05 11:35:00,50.7,45.4,30.00,SSW,209,4.0,18.0,82,0.00,,---,0.11,174.00,VWS V14.01,2013-02-05 19:35:00,
2013-02-05 11:40:00,50.1,45.2,29.99,WSW,252,2.0,15.0,83,0.00,,---,0.11,239.00,VWS V14.01,2013-02-05 19:40:00,
2013-02-05 11:45:00,50.0,45.4,30.00,South,171,5.0,17.0,84,0.00,,---,0.11,274.00,VWS V14.01,2013-02-05 19:45:00,
2013-02-05 11:50:00,50.2,45.6,29.99,South,180,9.0,12.0,84,0.00,,---,0.11,301.00,VWS V14.01,2013-02-05 19:50:00,
2013-02-05 11:55:00,50.4,45.8,29.99,South,170,9.0,15.0,84,0.00,,---,0.11,214.00,VWS V14.01,2013-02-05 19:55:00,
2013-02-05 12:00:00,50.4,45.8,29.99,SSW,204,2.0,15.0,84,0.00,,---,0.11,209.00,VWS V14.01,2013-02-05 20:00:00,
2013-02-05 12:05:00,50.2,44.9,29.99,SSW,192,9.0,19.0,82,0.00,,---,0.11,185.00,VWS V14.01,2013-02-05 20:05:00,
2013-02-05 12:10:00,50.1,44.8,29.99,SSE,167,15.0,17.0,82,0.00,,---,0.11,195.00,VWS V14.01,2013-02-05 20:10:00,
2013-02-05 12:15:00,49.9,45.0,29.99,South,185,11.0,18.0,83,0.00,,---,0.11,148.00,VWS V14.01,2013-02-05 20:15:00,
2013-02-05 12:20:00,49.8,44.8,29.98,South,186,13.0,16.0,83,0.00,,---,0.11,142.00,VWS V14.01,2013-02-05 20:20:00,
2013-02-05 12:25:00,49.9,45.6,29.98,South,171,5.0,16.0,85,0.00,,---,0.11,181.00,VWS V14.01,2013-02-05 20:25:00,
2013-02-05 12:30:00,50.1,45.5,29.98,SSW,212,9.0,15.0,84,0.00,,---,0.11,151.00,VWS V14.01,2013-02-05 20:30:00,
2013-02-05 12:35:00,50.1,45.2,29.98,South,191,9.0,15.0,83,0.00,,---,0.11,100.00,VWS V14.01,2013-02-05 20:35:00,
2013-02-05 12:40:00,50.0,45.0,29.98,SSW,209,3.0,10.0,83,0.00,,---,0.11,113.00,VWS V14.01,2013-02-05 20:40:00,
2013-02-05 12:45:00,50.0,45.0,29.97,South,186,5.0,12.0,83,0.00,,---,0.11,90.00,VWS V14.01,2013-02-05 20:45:00,
2013-02-05 12:50:00,49.9,45.3,29.98,South,182,13.0,18.0,84,0.00,,---,0.11,63.00,VWS V14.01,2013-02-05 20:50:00,
2013-02-05 12:55:00,49.6,44.7,29.98,SW,220,12.0,18.0,83,0.00,,---,0.11,81.00,VWS V14.01,2013-02-05 20:55:00,
2013-02-05 13:00:00,49.5,45.2,29.98,South,187,1.0,12.0,85,0.00,,---,0.11,51.00,VWS V14.01,2013-02-05 21:00:00,
2013-02-05 13:05:00,49.3,45.6,29.99,SSW,205,6.0,15.0,87,0.01,,---,0.12,88.00,VWS V14.01,2013-02-05 21:05:00,
2013-02-05 13:10:00,49.0,45.6,29.99,South,178,4.0,10.0,88,0.01,,---,0.12,70.00,VWS V14.01,2013-02-05 21:10:00,
2013-02-05 13:15:00,48.8,45.7,29.99,SSE,158,5.0,14.0,89,0.01,,---,0.12,179.00,VWS V14.01,2013-02-05 21:15:00,
2013-02-05 13:20:00,48.5,45.7,29.99,SSW,198,6.0,16.0,90,0.02,,---,0.13,156.00,VWS V14.01,2013-02-05 21:20:00,
2013-02-05 13:25:00,48.2,45.4,29.98,SSW,200,3.0,16.0,90,0.02,,---,0.13,165.00,VWS V14.01,2013-02-05 21:25:00,
2013-02-05 13:30:00,48.3,45.8,29.98,SW,215,10.0,12.0,91,0.02,,---,0.13,248.00,VWS V14.01,2013-02-05 21:30:00,
2013-02-05 13:35:00,48.8,46.3,29.98,SSW,200,6.0,12.0,91,0.02,,---,0.13,163.00,VWS V14.01,2013-02-05 21:35:00,
2013-02-05 13:40:00,49.0,46.2,29.98,South,171,7.0,11.0,90,0.02,,---,0.13,79.00,VWS V14.01,2013-02-05 21:40:00,
2013-02-05 13:45:00,49.0,45.9,29.98,SSE,162,3.0,11.0,89,0.02,,---,0.13,84.00,VWS V14.01,2013-02-05 21:45:00,
2013-02-05 13:50:00,49.0,46.2,29.98,SSE,151,4.0,13.0,90,0.02,,---,0.13,146.00,VWS V14.01,2013-02-05 21:50:00,
2013-02-05 13:55:00,49.1,46.3,29.98,SW,215,12.0,14.0,90,0.02,,---,0.13,213.00,VWS V14.01,2013-02-05 21:55:00,
2013-02-05 14:00:00,49.4,46.3,29.98,South,189,4.0,10.0,89,0.02,,---,0.13,160.00,VWS V14.01,2013-02-05 22:00:00,
2013-02-05 14:05:00,49.5,45.8,29.98,SSW,203,9.0,12.0,87,0.02,,---,0.13,83.00,VWS V14.01,2013-02-05 22:05:00,
2013-02-05 14:10:00,49.5,45.5,29.98,South,171,12.0,17.0,86,0.01,,---,0.13,67.00,VWS V14.01,2013-02-05 22:10:00,
2013-02-05 14:15:00,49.4,45.4,29.98,South,191,13.0,17.0,86,0.01,,---,0.13,144.00,VWS V14.01,2013-02-05 22:15:00,
2013-02-05 14:20:00,49.5,45.2,29.98,SSW,207,9.0,17.0,85,0.00,,---,0.13,202.00,VWS V14.01,2013-02-05 22:20:00,
2013-02-05 14:25:00,49.7,45.4,29.98,SSE,163,6.0,17.0,85,0.00,,---,0.13,204.00,VWS V14.01,2013-02-05 22:25:00,
2013-02-05 14:30:00,49.8,44.8,29.98,South,170,10.0,16.0,83,0.00,,---,0.13,176.00,VWS V14.01,2013-02-05 22:30:00,
2013-02-05 14:35:00,49.8,44.5,29.98,SSW,192,10.0,16.0,82,0.00,,---,0.13,181.00,VWS V14.01,2013-02-05 22:35:00,
2013-02-05 14:40:00,49.8,44.5,29.98,SSW,202,7.0,12.0,82,0.00,,---,0.13,156.00,VWS V14.01,2013-02-05 22:40:00,
2013-02-05 14:45:00,49.9,44.6,29.99,SW,218,4.0,15.0,82,0.00,,---,0.13,172.00,VWS V14.01,2013-02-05 22:45:00,
2013-02-05 14:50:00,49.9,44.6,29.99,SSE,163,4.0,12.0,82,0.00,,---,0.13,179.00,VWS V14.01,2013-02-05 22:50:00,
2013-02-05 14:55:00,50.0,45.7,29.99,SSE,165,4.0,13.0,85,0.00,,---,0.13,188.00,VWS V14.01,2013-02-05 22:55:00,
2013-02-05 15:00:00,49.7,46.0,29.99,South,173,3.0,14.0,87,0.00,,---,0.13,158.00,VWS V14.01,2013-02-05 23:00:00,
2013-02-05 15:05:00,49.5,45.8,29.99,SW,219,3.0,14.0,87,0.00,,---,0.13,158.00,VWS V14.01,2013-02-05 23:05:00,
2013-02-05 15:10:00,49.5,45.8,29.99,SE,142,2.0,13.0,87,0.00,,---,0.13,158.00,VWS V14.01,2013-02-05 23:10:00,
2013-02-05 15:15:00,49.6,45.3,29.99,South,180,6.0,14.0,85,0.00,,---,0.13,111.00,VWS V14.01,2013-02-05 23:15:00,
2013-02-05 15:20:00,49.6,45.6,29.99,SSW,192,6.0,11.0,86,0.00,,---,0.13,86.00,VWS V14.01,2013-02-05 23:20:00,
2013-02-05 15:25:00,49.6,45.0,29.99,South,170,7.0,15.0,84,0.00,,---,0.13,206.00,VWS V14.01,2013-02-05 23:25:00,
2013-02-05 15:30:00,49.7,45.1,29.99,South,169,4.0,13.0,84,0.00,,---,0.13,149.00,VWS V14.01,2013-02-05 23:30:00,
2013-02-05 15:35:00,49.8,45.2,29.99,SSE,163,7.0,14.0,84,0.00,,---,0.13,98.00,VWS V14.01,2013-02-05 23:35:00,
2013-02-05 15:40:00,49.8,45.2,29.99,SSW,204,10.0,11.0,84,0.00,,---,0.13,83.00,VWS V14.01,2013-02-05 23:40:00,
2013-02-05 15:45:00,49.9,45.3,29.99,SSW,194,10.0,16.0,84,0.00,,---,0.13,171.00,VWS V14.01,2013-02-05 23:45:00,
2013-02-05 15:50:00,50.0,44.7,29.99,South,190,9.0,12.0,82,0.00,,---,0.13,111.00,VWS V14.01,2013-02-05 23:50:00,
2013-02-05 15:55:00,50.1,44.8,29.99,SSE,167,4.0,15.0,82,0.00,,---,0.13,111.00,VWS V14.01,2013-02-05 23:55:00,
2013-02-05 16:00:00,50.2,44.6,29.99,South,183,7.0,16.0,81,0.00,,---,0.13,95.00,VWS V14.01,2013-02-06 00:00:00,
2013-02-05 16:05:00,50.2,44.6,29.99,South,189,3.0,16.0,81,0.00,,---,0.13,46.00,VWS V14.01,2013-02-06 00:05:00,
2013-02-05 16:10:00,50.1,44.5,29.99,SSW,198,11.0,22.0,81,0.00,,---,0.13,49.00,VWS V14.01,2013-02-06 00:10:00,
2013-02-05 16:15:00,50.0,44.7,30.00,SSW,200,4.0,22.0,82,0.00,,---,0.13,60.00,VWS V14.01,2013-02-06 00:15:00,
2013-02-05 16:20:00,49.9,44.6,29.99,South,189,4.0,11.0,82,0.00,,---,0.13,40.00,VWS V14.01,2013-02-06 00:20:00,
2013-02-05 16:25:00,49.8,44.5,29.99,South,175,10.0,11.0,82,0.00,,---,0.13,26.00,VWS V14.01,2013-02-06 00:25:00,
2013-02-05 16:30:00,49.6,44.7,30.00,SSW,196,6.0,9.0,83,0.00,,---,0.13,23.00,VWS V14.01,2013-02-06 00:30:00,
2013-02-05 16:35:00,49.5,44.9,30.00,SSW,193,6.0,11.0,84,0.00,,---,0.13,23.00,VWS V14.01,2013-02-06 00:35:00,
2013-02-05 16:40:00,49.5,44.9,30.00,South,182,6.0,12.0,84,0.00,,---,0.13,18.00,VWS V14.01,2013-02-06 00:40:00,
2013-02-05 16:45:00,49.4,44.1,30.00,South,175,7.0,16.0,82,0.00,,---,0.13,12.00,VWS V14.01,2013-02-06 00:45:00,
2013-02-05 16:50:00,49.3,44.0,30.00,South,184,4.0,14.0,82,0.00,,---,0.13,18.00,VWS V14.01,2013-02-06 00:50:00,
2013-02-05 16:55:00,49.1,44.2,30.00,South,186,7.0,14.0,83,0.00,,---,0.13,12.00,VWS V14.01,2013-02-06 00:55:00,
2013-02-05 17:00:00,48.6,44.3,30.00,SSW,213,10.0,12.0,85,0.00,,---,0.13,0.00,VWS V14.01,2013-02-06 01:00:00,
2013-02-05 17:05:00,48.2,44.5,30.01,WSW,257,7.0,12.0,87,0.01,,---,0.14,0.00,VWS V14.01,2013-02-06 01:05:00,
2013-02-05 17:10:00,47.8,44.7,30.02,West,270,6.0,14.0,89,0.02,,---,0.15,0.00,VWS V14.01,2013-02-06 01:10:00,
2013-02-05 17:15:00,47.0,43.6,30.02,SW,232,13.0,20.0,88,0.06,,---,0.19,0.00,VWS V14.01,2013-02-06 01:15:00,
2013-02-05 17:20:00,45.7,42.7,30.02,SW,232,2.0,12.0,89,0.07,,---,0.20,0.00,VWS V14.01,2013-02-06 01:20:00,
2013-02-05 17:25:00,45.2,42.7,30.01,SSW,200,0.0,12.0,91,0.08,,---,0.21,0.00,VWS V14.01,2013-02-06 01:25:00,
2013-02-05 17:30:00,44.9,42.7,30.01,SW,228,3.0,6.0,92,0.08,,---,0.21,0.00,VWS V14.01,2013-02-06 01:30:00,
2013-02-05 17:35:00,44.8,42.9,30.01,South,174,4.0,10.0,93,0.08,,---,0.21,0.00,VWS V14.01,2013-02-06 01:35:00,
2013-02-05 17:40:00,44.8,42.9,30.02,WSW,240,7.0,7.0,93,0.08,,---,0.21,0.00,VWS V14.01,2013-02-06 01:40:00,
2013-02-05 17:45:00,44.8,42.9,30.02,South,190,4.0,7.0,93,0.08,,---,0.21,0.00,VWS V14.01,2013-02-06 01:45:00,
2013-02-05 17:50:00,44.7,42.8,30.02,SSW,205,2.0,6.0,93,0.08,,---,0.21,0.00,VWS V14.01,2013-02-06 01:50:00,
2013-02-05 17:55:00,44.5,42.6,30.02,South,180,3.0,7.0,93,0.08,,---,0.21,0.00,VWS V14.01,2013-02-06 01:55:00,
2013-02-05 18:00:00,44.4,42.5,30.02,South,186,3.0,6.0,93,0.08,,---,0.21,0.00,VWS V14.01,2013-02-06 02:00:00,
2013-02-05 18:05:00,44.4,42.5,30.02,South,183,2.0,6.0,93,0.08,,---,0.21,0.00,VWS V14.01,2013-02-06 02:05:00,
2013-02-05 18:10:00,44.4,42.8,30.02,SSE,168,2.0,4.0,94,0.06,,---,0.21,0.00,VWS V14.01,2013-02-06 02:10:00,
2013-02-05 18:15:00,44.4,42.8,30.02,South,190,2.0,5.0,94,0.06,,---,0.21,0.00,VWS V14.01,2013-02-06 02:15:00,
2013-02-05 18:20:00,44.2,42.6,30.02,South,173,3.0,5.0,94,0.01,,---,0.21,0.00,VWS V14.01,2013-02-06 02:20:00,
2013-02-05 18:25:00,44.1,42.5,30.03,SSE,163,0.0,9.0,94,0.01,,---,0.21,0.00,VWS V14.01,2013-02-06 02:25:00,
2013-02-05 18:30:00,44.1,42.2,30.03,SSE,167,2.0,10.0,93,0.00,,---,0.21,0.00,VWS V14.01,2013-02-06 02:30:00,
2013-02-05 18:35:00,44.0,42.1,30.03,South,181,4.0,10.0,93,0.00,,---,0.21,0.00,VWS V14.01,2013-02-06 02:35:00,
2013-02-05 18:40:00,44.0,42.1,30.03,SSW,197,3.0,8.0,93,0.00,,---,0.21,0.00,VWS V14.01,2013-02-06 02:40:00,
2013-02-05 18:45:00,43.9,42.0,30.03,South,173,3.0,8.0,93,0.00,,---,0.21,0.00,VWS V14.01,2013-02-06 02:45:00,
2013-02-05 18:50:00,43.9,42.0,30.03,South,177,0.0,9.0,93,0.00,,---,0.21,0.00,VWS V14.01,2013-02-06 02:50:00,
2013-02-05 18:55:00,43.8,41.9,30.03,SSW,202,2.0,9.0,93,0.00,,---,0.21,0.00,VWS V14.01,2013-02-06 02:55:00,
2013-02-05 19:00:00,43.7,41.8,30.04,SSW,207,2.0,5.0,93,0.00,,---,0.21,0.00,VWS V14.01,2013-02-06 03:00:00,
2013-02-05 19:05:00,43.7,41.8,30.03,SSW,205,1.0,5.0,93,0.00,,---,0.21,0.00,VWS V14.01,2013-02-06 03:05:00,
2013-02-05 19:10:00,43.6,41.4,30.04,SSE,152,4.0,4.0,92,0.00,,---,0.21,0.00,VWS V14.01,2013-02-06 03:10:00,
2013-02-05 19:15:00,43.5,41.3,30.05,South,169,0.0,5.0,92,0.00,,---,0.21,0.00,VWS V14.01,2013-02-06 03:15:00,
2013-02-05 19:20:00,43.4,41.2,30.05,South,169,0.0,3.0,92,0.00,,---,0.21,0.00,VWS V14.01,2013-02-06 03:20:00,
2013-02-05 19:25:00,43.3,41.4,30.05,South,169,0.0,3.0,93,0.00,,---,0.21,0.00,VWS V14.01,2013-02-06 03:25:00,
2013-02-05 19:30:00,43.2,41.3,30.05,South,172,2.0,5.0,93,0.00,,---,0.21,0.00,VWS V14.01,2013-02-06 03:30:00,
2013-02-05 19:35:00,43.2,41.3,30.05,SSE,159,3.0,6.0,93,0.00,,---,0.21,0.00,VWS V14.01,2013-02-06 03:35:00,
2013-02-05 19:40:00,43.3,41.1,30.05,SSW,212,3.0,10.0,92,0.00,,---,0.21,0.00,VWS V14.01,2013-02-06 03:40:00,
2013-02-05 19:45:00,43.4,41.2,30.06,SSW,198,2.0,10.0,92,0.00,,---,0.21,0.00,VWS V14.01,2013-02-06 03:45:00,
2013-02-05 19:50:00,43.5,41.3,30.06,South,188,0.0,5.0,92,0.00,,---,0.21,0.00,VWS V14.01,2013-02-06 03:50:00,
2013-02-05 19:55:00,43.6,41.4,30.06,South,185,4.0,7.0,92,0.00,,---,0.21,0.00,VWS V14.01,2013-02-06 03:55:00,
2013-02-05 20:00:00,43.5,41.3,30.06,South,184,4.0,7.0,92,0.00,,---,0.21,0.00,VWS V14.01,2013-02-06 04:00:00,
2013-02-05 20:05:00,43.4,41.5,30.06,SSW,204,1.0,7.0,93,0.00,,---,0.21,0.00,VWS V14.01,2013-02-06 04:05:00,
2013-02-05 20:10:00,43.4,41.5,30.06,South,187,3.0,9.0,93,0.00,,---,0.21,0.00,VWS V14.01,2013-02-06 04:10:00,
2013-02-05 20:15:00,43.6,42.0,30.06,SSE,168,3.0,14.0,94,0.00,,---,0.21,0.00,VWS V14.01,2013-02-06 04:15:00,
2013-02-05 20:20:00,43.8,42.2,30.06,SSW,209,6.0,11.0,94,0.00,,---,0.21,0.00,VWS V14.01,2013-02-06 04:20:00,
2013-02-05 20:25:00,43.9,42.3,30.06,SSW,205,9.0,14.0,94,0.00,,---,0.21,0.00,VWS V14.01,2013-02-06 04:25:00,
2013-02-05 20:30:00,44.0,42.4,30.07,SSW,202,5.0,12.0,94,0.00,,---,0.21,0.00,VWS V14.01,2013-02-06 04:30:00,
2013-02-05 20:35:00,44.0,42.4,30.07,South,180,6.0,12.0,94,0.00,,---,0.21,0.00,VWS V14.01,2013-02-06 04:35:00,
2013-02-05 20:40:00,44.0,42.4,30.07,SSW,195,2.0,6.0,94,0.00,,---,0.21,0.00,VWS V14.01,2013-02-06 04:40:00,
2013-02-05 20:45:00,44.0,42.4,30.07,SSE,164,1.0,7.0,94,0.00,,---,0.21,0.00,VWS V14.01,2013-02-06 04:45:00,
2013-02-05 20:50:00,44.0,42.4,30.07,SSE,160,4.0,5.0,94,0.00,,---,0.21,0.00,VWS V14.01,2013-02-06 04:50:00,
2013-02-05 20:55:00,43.9,42.0,30.08,South,175,2.0,7.0,93,0.00,,---,0.21,0.00,VWS V14.01,2013-02-06 04:55:00,
2013-02-05 21:00:00,43.9,42.0,30.07,SSE,157,3.0,6.0,93,0.00,,---,0.21,0.00,VWS V14.01,2013-02-06 05:00:00,
2013-02-05 21:05:00,43.8,41.9,30.08,South,175,3.0,7.0,93,0.00,,---,0.21,0.00,VWS V14.01,2013-02-06 05:05:00,
2013-02-05 21:10:00,43.8,41.9,30.08,South,171,2.0,6.0,93,0.00,,---,0.21,0.00,VWS V14.01,2013-02-06 05:10:00,
2013-02-05 21:15:00,43.8,41.9,30.08,South,178,5.0,6.0,93,0.00,,---,0.21,0.00,VWS V14.01,2013-02-06 05:15:00,
2013-02-05 21:20:00,43.7,41.8,30.08,SSE,165,3.0,6.0,93,0.00,,---,0.21,0.00,VWS V14.01,2013-02-06 05:20:00,
2013-02-05 21:25:00,43.7,41.8,30.08,South,174,4.0,10.0,93,0.00,,---,0.21,0.00,VWS V14.01,2013-02-06 05:25:00,
2013-02-05 21:30:00,43.7,41.8,30.08,SSE,153,3.0,3.0,93,0.00,,---,0.21,0.00,VWS V14.01,2013-02-06 05:30:00,
2013-02-05 21:35:00,43.7,41.8,30.08,SSE,162,0.0,7.0,93,0.00,,---,0.21,0.00,VWS V14.01,2013-02-06 05:35:00,
2013-02-05 21:40:00,43.7,41.8,30.08,SSE,148,0.0,4.0,93,0.00,,---,0.21,0.00,VWS V14.01,2013-02-06 05:40:00,
2013-02-05 21:45:00,43.7,41.8,30.08,SSE,149,5.0,5.0,93,0.00,,---,0.21,0.00,VWS V14.01,2013-02-06 05:45:00,
2013-02-05 21:50:00,43.7,41.5,30.09,South,184,3.0,9.0,92,0.00,,---,0.21,0.00,VWS V14.01,2013-02-06 05:50:00,
2013-02-05 21:55:00,43.8,41.9,30.09,South,185,0.0,9.0,93,0.00,,---,0.21,0.00,VWS V14.01,2013-02-06 05:55:00,
2013-02-05 22:00:00,43.8,41.9,30.09,SSE,164,0.0,4.0,93,0.00,,---,0.21,0.00,VWS V14.01,2013-02-06 06:00:00,
2013-02-05 22:05:00,43.8,41.9,30.09,SSW,203,3.0,5.0,93,0.00,,---,0.21,0.00,VWS V14.01,2013-02-06 06:05:00,
2013-02-05 22:10:00,43.9,41.7,30.09,South,173,5.0,11.0,92,0.00,,---,0.21,0.00,VWS V14.01,2013-02-06 06:10:00,
2013-02-05 22:15:00,44.0,41.8,30.09,South,170,3.0,11.0,92,0.00,,---,0.21,0.00,VWS V14.01,2013-02-06 06:15:00,
2013-02-05 22:20:00,44.1,41.9,30.09,South,185,3.0,8.0,92,0.00,,---,0.21,0.00,VWS V14.01,2013-02-06 06:20:00,
2013-02-05 22:25:00,44.3,42.1,30.09,SSE,150,4.0,11.0,92,0.00,,---,0.21,0.00,VWS V14.01,2013-02-06 06:25:00,
2013-02-05 22:30:00,44.4,41.9,30.09,South,185,9.0,14.0,91,0.00,,---,0.21,0.00,VWS V14.01,2013-02-06 06:30:00,
2013-02-05 22:35:00,44.5,42.0,30.09,South,184,9.0,15.0,91,0.00,,---,0.21,0.00,VWS V14.01,2013-02-06 06:35:00,
2013-02-05 22:40:00,44.4,41.9,30.08,SSW,200,13.0,16.0,91,0.00,,---,0.21,0.00,VWS V14.01,2013-02-06 06:40:00,
2013-02-05 22:45:00,44.3,41.8,30.08,South,180,6.0,16.0,91,0.00,,---,0.21,0.00,VWS V14.01,2013-02-06 06:45:00,
2013-02-05 22:50:00,44.3,41.8,30.08,South,170,6.0,11.0,91,0.00,,---,0.21,0.00,VWS V14.01,2013-02-06 06:50:00,
2013-02-05 22:55:00,44.1,41.7,30.08,SSW,205,8.0,12.0,91,0.00,,---,0.21,0.00,VWS V14.01,2013-02-06 06:55:00,
2013-02-05 23:00:00,44.1,41.7,30.09,SSE,158,9.0,13.0,91,0.00,,---,0.21,0.00,VWS V14.01,2013-02-06 07:00:00,
2013-02-05 23:05:00,44.0,41.5,30.09,South,190,14.0,14.0,91,0.00,,---,0.21,0.00,VWS V14.01,2013-02-06 07:05:00,
2013-02-05 23:10:00,43.9,41.5,30.09,SSW,203,11.0,14.0,91,0.00,,---,0.21,0.00,VWS V14.01,2013-02-06 07:10:00,
2013-02-05 23:15:00,43.9,41.7,30.09,SW,217,4.0,14.0,92,0.00,,---,0.21,0.00,VWS V14.01,2013-02-06 07:15:00,
2013-02-05 23:20:00,43.8,41.6,30.09,South,184,1.0,10.0,92,0.00,,---,0.21,0.00,VWS V14.01,2013-02-06 07:20:00,
2013-02-05 23:25:00,43.8,41.6,30.09,SSW,194,3.0,10.0,92,0.00,,---,0.21,0.00,VWS V14.01,2013-02-06 07:25:00,
2013-02-05 23:30:00,43.7,41.5,30.09,SSE,156,4.0,7.0,92,0.00,,---,0.21,0.00,VWS V14.01,2013-02-06 07:30:00,
2013-02-05 23:35:00,43.6,41.4,30.10,SSW,205,5.0,10.0,92,0.00,,---,0.21,0.00,VWS V14.01,2013-02-06 07:35:00,
2013-02-05 23:40:00,43.7,41.5,30.10,South,178,4.0,12.0,92,0.00,,---,0.21,0.00,VWS V14.01,2013-02-06 07:40:00,
2013-02-05 23:45:00,43.7,41.2,30.10,South,170,6.0,12.0,91,0.00,,---,0.21,0.00,VWS V14.01,2013-02-06 07:45:00,
2013-02-05 23:50:00,43.6,41.2,30.10,South,184,1.0,13.0,91,0.00,,---,0.21,0.00,VWS V14.01,2013-02-06 07:50:00,
2013-02-05 23:55:00,43.6,41.2,30.10,South,180,2.0,13.0,91,0.00,,---,0.21,0.00,VWS V14.01,2013-02-06 07:55:00,